Theta_e
315 313 312 311 310 307 307 307 301 318 319 305 306 302 304 302 306 309 307 307 306 304 304 304 305 304 308 313 313 307 310 307 304 305 312 314 311 309 308 302 303 306 305 304
315 313 312 311 310 308 303 303 306 313 314 298 302 307 306 305 305 305 305 305 307 308 304 302 305 306 311 313 312 312 314 306 301 303 308 311 308 309 310 311 311 305 302 304
315 313 311 311 311 309 305 303 301 307 312 308 304 303 304 304 308 305 306 305 307 305 304 307 304 305 309 313 312 323 318 310 309 299 305 309 307 308 309 309 306 306 305 312
315 313 312 311 311 310 306 307 304 308 303 307 308 307 305 303 303 309 306 305 304 303 301 303 303 306 307 310 315 312 314 310 309 308 308 307 307 307 308 306 308 304 308 314
314 313 311 311 311 308 305 304 303 308 306 309 308 305 305 303 304 307 306 306 305 306 304 304 303 306 307 307 312 310 314 310 311 307 309 309 306 308 309 309 308 308 309 314
315 313 311 311 310 306 308 310 308 303 302 306 307 307 307 304 308 309 310 310 308 306 306 312 312 310 311 311 312 311 312 312 310 304 306 306 302 308 310 309 311 312 309 319
315 313 312 311 310 307 306 307 307 300 298 303 305 308 308 308 308 306 308 311 309 314 320 318 314 312 310 310 312 315 307 307 311 304 309 297 307 316 318 315 320 323 320 317
315 313 312 311 310 309 306 308 306 301 298 304 306 307 307 309 310 309 309 312 316 319 315 309 306 305 306 307 310 312 313 311 305 302 301 305 309 311 312 316 315 323 312 320
315 313 312 311 311 310 307 308 311 305 299 300 306 305 308 305 305 307 311 316 320 317 311 308 302 298 301 301 305 312 312 317 306 305 299 297 308 310 312 316 312 323 325 324
315 314 313 311 311 310 307 307 313 305 299 303 306 304 304 308 306 305 311 312 313 315 308 304 301 301 308 301 302 306 305 308 303 302 299 303 317 316 320 303 312 323 324 324
315 314 313 311 311 310 308 307 313 306 300 302 305 308 306 307 307 304 309 309 312 310 306 301 302 303 307 305 305 306 305 303 302 305 301 298 321 320 315 321 324 322 323 323
314 314 313 312 311 310 308 304 312 310 304 303 308 307 309 308 309 306 308 310 308 313 307 310 306 303 308 306 298 311 303 303 308 312 311 322 321 320 322 324 321 321 322 324
314 314 313 313 312 310 308 306 309 308 302 303 305 305 312 313 311 312 305 312 313 315 318 311 311 305 307 302 305 307 312 314 311 311 318 319 319 321 322 322 321 322 323 324
314 314 313 313 312 310 308 306 311 308 302 298 304 313 312 315 315 315 314 313 314 315 316 310 307 306 309 304 306 309 309 308 302 310 317 317 320 321 321 322 325 323 323 324
313 313 313 312 312 310 309 309 310 312 302 297 299 304 310 314 313 314 314 314 314 312 309 307 304 309 310 311 309 308 310 306 308 307 317 314 320 321 320 320 320 322 321 322
313 312 312 311 311 309 307 302 312 313 309 299 297 309 310 315 313 313 313 313 313 312 308 307 310 315 310 304 303 313 316 317 315 314 314 321 319 321 321 319 318 321 321 324
312 311 310 310 310 308 303 304 308 307 309 301 300 302 310 314 312 310 310 315 312 309 307 307 307 307 310 306 301 313 316 319 319 321 320 316 317 314 317 319 320 320 323 326
311 310 309 308 309 306 303 309 308 308 306 305 298 302 307 313 306 305 311 308 310 309 306 307 306 308 308 304 311 316 317 317 316 315 316 314 317 319 319 320 319 319 321 326
310 309 308 307 304 304 308 312 309 308 306 301 300 297 299 311 307 309 311 310 303 309 305 305 307 304 302 310 312 315 316 315 314 316 314 314 316 316 318 320 322 322 322 324
308 305 299 301 309 311 310 307 303 303 304 304 297 303 300 308 307 307 308 307 303 302 306 308 303 303 314 315 317 318 317 315 314 311 311 315 312 316 318 321 322 323 321 322
302 298 297 309 309 307 303 301 300 302 299 303 300 300 298 309 304 305 308 306 306 300 304 304 302 303 310 316 317 317 314 315 314 315 316 317 319 319 320 319 319 319 318 315
303 303 306 310 303 303 299 297 301 301 299 304 299 299 303 308 314 309 309 304 307 299 311 305 300 313 317 316 316 317 316 317 316 317 319 319 319 321 320 321 319 318 318 317
305 304 301 301 301 293 294 293 297 299 303 304 301 298 303 311 312 310 307 301 302 309 304 301 309 318 318 318 316 317 319 318 317 317 319 319 319 320 320 319 320 322 319 321
300 298 291 297 296 298 300 300 302 306 306 305 303 300 303 307 306 306 302 305 306 300 297 300 314 318 318 317 316 316 316 317 317 318 319 319 320 318 320 319 320 321 321 321
299 302 292 298 303 304 304 306 306 308 309 308 302 301 302 304 303 305 302 301 298 300 300 311 316 321 319 318 320 318 316 318 318 319 318 319 319 317 317 321 321 321 319 319
301 303 300 303 301 302 304 305 305 310 309 307 303 299 299 300 303 300 299 297 295 301 312 316 319 322 321 320 319 319 319 319 319 319 320 320 320 318 321 322 321 318 320 319
298 301 306 305 303 303 305 306 306 310 306 301 301 296 297 303 300 298 303 299 306 310 313 318 325 324 321 321 319 316 317 316 316 317 318 318 320 321 321 319 320 319 319 319
Wind_Speed
9 8 8 12 15 24 12 7 7 8 4 7 8 12 17 19 21 21 17 11 16 21 22 14 18 8 16 27 23 23 22 16 17 23 20 22 16 21 20 11 13 13 13 9
9 8 7 10 11 12 8 6 11 8 5 9 11 16 18 14 16 17 14 17 17 17 20 19 17 17 10 20 20 14 13 8 9 20 16 12 18 19 19 18 14 17 13 8
9 7 7 8 9 8 7 7 6 6 6 11 16 14 15 15 9 13 16 17 20 19 17 20 17 18 20 16 10 12 9 10 15 13 17 17 11 22 18 17 11 14 17 6
8 8 7 8 10 7 6 7 5 13 7 7 9 15 15 12 16 13 13 11 17 18 18 19 19 19 18 16 5 6 6 10 15 15 18 13 13 14 19 19 18 15 13 14
9 8 7 8 10 12 5 7 11 12 14 16 15 12 12 11 14 16 18 14 10 18 16 18 20 19 18 13 7 14 15 10 12 19 19 18 14 18 24 25 22 20 16 11
11 8 8 7 8 8 6 9 11 9 10 16 15 7 11 10 11 11 21 15 15 15 18 15 14 19 18 17 5 1 8 10 8 15 4 25 8 16 17 9 14 6 5 16
11 10 8 8 7 6 7 9 8 9 12 15 9 4 9 15 10 16 11 21 11 12 16 14 13 17 17 21 9 8 6 21 7 10 9 15 4 15 21 8 16 22 25 20
12 11 9 8 7 6 7 9 8 7 11 15 15 4 10 11 11 18 13 14 9 9 12 9 11 13 18 18 16 14 18 13 9 8 11 5 4 12 11 14 19 16 20 7
13 12 11 9 7 6 7 8 8 6 9 11 20 15 14 13 9 14 16 3 19 15 10 8 12 12 15 15 17 13 7 4 7 10 14 15 4 9 19 39 13 11 12 11
14 13 12 10 7 6 6 8 9 6 11 18 15 15 11 13 14 11 8 12 12 17 8 6 5 11 10 5 9 13 12 10 13 11 10 7 12 15 20 6 7 10 11 11
14 13 12 10 8 6 5 8 6 6 9 18 21 19 14 12 11 10 13 10 4 8 6 5 5 3 7 2 4 12 6 8 11 12 14 10 15 5 7 7 8 11 11 11
14 13 12 10 8 6 4 8 4 4 8 13 25 23 23 22 19 13 9 3 6 8 6 4 7 5 6 5 4 28 2 3 12 6 5 10 15 16 10 8 8 8 8 8
14 13 13 10 8 7 6 8 9 8 10 13 15 15 19 19 19 16 10 2 5 7 5 4 3 7 7 7 5 7 7 14 7 5 9 11 12 13 12 9 7 7 8 9
14 13 12 10 8 7 6 8 9 6 7 8 7 5 6 8 11 11 8 7 9 12 6 6 6 3 8 12 7 7 6 8 8 11 10 11 11 9 8 8 7 8 8 7
15 13 12 9 8 6 8 9 9 7 5 7 12 19 22 12 9 10 7 7 6 8 8 6 5 10 4 9 11 6 4 10 3 4 3 7 11 9 9 9 8 7 8 8
15 13 11 9 7 5 4 4 8 3 2 6 6 7 15 7 7 9 8 6 7 7 8 9 6 6 1 7 9 11 13 7 9 0 9 3 5 5 7 7 7 6 7 6
14 12 10 8 6 5 6 7 5 9 4 5 6 6 10 7 7 7 8 10 6 8 8 8 10 11 3 4 8 20 16 11 9 12 6 2 9 6 4 4 6 1 6 3
14 12 9 5 3 9 8 9 15 6 7 5 5 6 6 10 6 8 8 8 8 6 6 9 6 5 4 4 3 5 6 6 4 4 4 1 3 3 4 5 4 8 5 7
15 12 7 4 4 5 2 9 12 6 6 6 5 7 5 4 9 6 6 4 7 5 6 9 5 6 6 2 7 5 6 6 9 4 3 6 4 2 7 9 13 12 11 6
17 4 3 5 4 16 10 4 6 6 6 6 6 6 9 5 6 6 2 4 7 5 7 8 9 5 5 5 9 4 4 5 6 6 6 7 8 7 14 18 13 11 12 12
2 3 4 4 5 5 5 4 6 7 6 7 5 10 10 15 6 5 4 4 4 4 2 3 6 4 9 8 6 1 3 2 4 6 6 5 6 9 10 10 7 7 7 10
6 3 4 2 4 4 5 5 5 7 10 7 4 9 11 7 5 4 2 5 4 2 3 7 3 4 3 6 6 3 2 3 3 0 5 6 6 10 11 8 5 5 4 4
3 2 2 3 4 2 7 10 6 6 4 5 4 5 9 5 7 3 4 5 4 5 5 3 8 10 6 3 4 4 3 4 6 4 4 5 1 6 6 7 9 6 6 6
4 6 3 6 7 8 9 10 7 5 1 5 4 4 6 6 6 5 5 2 1 3 4 2 8 8 6 3 0 3 3 6 10 10 8 6 11 15 7 6 6 3 4 6
5 5 5 10 11 10 5 7 6 2 1 2 5 3 4 5 6 2 7 7 4 5 2 9 8 7 6 4 6 6 2 7 9 8 8 8 6 9 13 9 5 4 6 11
3 6 9 8 9 10 7 3 3 3 2 3 6 7 4 3 6 5 10 7 3 3 10 9 8 7 7 5 1 4 6 5 3 4 8 8 7 6 11 6 6 6 8 7
5 7 10 4 8 4 7 4 4 5 5 6 4 6 8 5 7 8 3 5 5 8 7 9 9 8 5 4 5 3 4 2 3 3 4 5 7 9 6 2 2 7 7 5
Wind_Direction
259 281 309 320 333 332 322 291 273 123 208 236 237 252 260 262 276 288 282 231 277 287 297 319 295 267 341 338 318 236 229 235 238 247 251 206 225 238 220 244 258 269 285 292
245 269 299 314 335 359 319 283 291 265 222 256 250 278 258 246 273 280 274 279 279 262 282 287 291 301 334 277 268 9 326 245 239 237 232 252 208 239 243 218 227 259 277 260
235 256 280 302 317 345 307 278 290 185 214 258 280 291 297 309 258 259 276 287 290 291 269 268 273 280 288 310 290 340 311 286 287 242 242 204 252 226 231 235 225 225 237 98
226 242 262 289 305 334 295 250 288 348 270 323 324 312 298 308 305 306 235 262 254 264 280 282 277 274 277 272 286 286 300 292 298 283 264 284 293 285 255 237 253 253 253 128
217 233 252 282 306 324 254 294 333 340 303 296 292 266 261 275 289 339 316 306 255 281 263 254 272 274 277 286 316 341 319 274 283 279 281 287 234 239 239 244 230 241 243 141
210 222 242 275 312 332 291 338 341 304 291 291 278 327 314 266 305 282 315 309 269 262 258 304 276 247 270 275 315 257 341 302 245 276 7 294 355 249 331 234 267 359 184 72
207 213 227 255 289 327 308 298 315 293 290 286 338 348 313 287 300 298 318 296 283 321 334 308 298 298 265 257 256 146 40 310 298 283 271 248 3 321 345 105 82 58 84 101
204 208 219 238 266 302 293 305 291 298 293 292 299 0 247 289 302 311 310 306 329 306 288 276 253 256 268 266 240 206 175 245 296 292 283 311 341 7 341 29 36 49 125 272
197 203 212 227 251 294 284 278 298 280 288 250 343 323 295 300 305 301 318 108 302 305 283 288 243 234 229 229 246 249 206 226 265 285 296 300 76 359 345 277 79 28 36 61
193 202 207 218 233 271 289 294 293 274 284 273 301 314 342 316 325 299 318 324 303 307 283 30 296 294 323 245 243 242 208 230 237 240 253 247 29 174 217 353 88 38 24 29
191 199 205 214 225 255 281 298 278 296 290 291 282 299 305 299 302 328 345 307 290 284 30 73 335 309 341 319 19 320 54 334 243 240 248 234 6 37 23 36 40 44 28 21
188 195 203 212 222 246 283 273 230 301 272 288 304 286 276 266 273 290 303 26 302 340 316 26 109 319 328 346 63 239 187 138 298 12 72 87 79 100 78 62 58 43 29 22
187 190 198 206 212 228 252 310 322 290 272 270 251 257 252 226 235 243 268 40 298 328 326 304 343 60 339 337 300 333 42 21 333 325 111 89 99 79 85 76 58 47 31 23
185 188 192 201 201 220 252 287 305 306 296 284 310 328 297 234 246 239 253 260 269 282 263 287 287 87 190 291 298 297 47 20 344 313 83 130 88 67 73 81 72 39 12 28
181 183 188 191 197 226 266 266 271 270 281 310 311 309 269 238 212 247 242 253 254 288 292 256 266 269 166 263 276 103 141 194 182 263 339 334 89 76 40 36 31 33 352 5
177 177 178 181 196 231 290 277 197 288 203 282 289 335 275 200 207 220 232 236 242 266 283 299 302 305 0 299 303 50 123 139 192 78 319 18 50 111 40 15 354 14 331 333
168 163 165 177 196 245 249 348 4 333 279 254 282 268 205 194 185 218 232 218 247 271 267 265 272 281 257 286 284 127 152 156 189 170 213 231 56 3 357 334 353 250 256 109
151 144 152 166 235 276 271 228 216 240 261 257 274 271 225 184 188 214 210 249 231 219 252 267 261 260 228 266 306 56 128 124 158 126 105 170 192 265 346 348 327 312 18 98
130 128 145 185 230 239 85 100 133 199 294 308 264 270 345 197 229 204 168 229 250 234 219 236 242 243 256 198 200 148 47 31 346 42 9 328 25 18 9 31 27 21 6 6
129 140 180 216 191 113 140 172 194 199 206 224 253 271 295 339 225 225 207 175 249 206 210 229 224 239 88 147 82 48 346 317 294 298 299 36 20 313 58 37 36 51 51 30
180 173 213 77 137 222 216 229 223 191 217 202 247 245 265 272 229 224 210 333 251 248 143 238 221 333 160 117 119 174 247 249 270 269 283 343 54 77 104 138 112 102 91 102
169 166 279 209 217 224 239 221 224 232 221 180 216 252 228 270 293 264 296 233 276 240 76 332 183 134 137 142 132 150 247 279 281 257 42 339 123 133 188 136 146 135 118 165
112 142 183 260 235 188 228 214 224 211 218 144 197 256 247 106 269 134 349 238 207 255 199 243 92 133 118 107 151 135 343 338 315 309 40 105 125 117 173 154 157 177 103 265
166 187 200 227 204 223 211 245 231 241 55 135 181 234 277 218 203 266 230 249 2 291 248 307 122 129 120 148 161 43 50 1 336 22 34 13 18 0 93 89 54 43 169 97
228 208 219 215 242 258 257 237 247 149 185 139 146 247 268 257 2 194 37 302 214 234 216 100 108 111 121 89 36 16 12 24 22 4 6 11 82 104 283 239 86 44 37 72
275 238 239 249 222 238 240 256 202 147 215 228 174 219 236 351 238 221 176 203 249 16 89 110 121 117 93 73 71 39 19 31 18 6 334 323 343 18 319 348 35 49 73 77
264 233 244 266 305 204 278 246 239 156 213 215 208 206 243 217 259 212 272 214 49 41 86 85 101 103 96 96 86 120 117 97 57 350 326 305 314 334 337 331 130 101 99 89